Location: Poughquag
(41.6090°N, 73.6820°W)
Time: 12:50:26
(UTC-04:00)

A-11 Canister half - Pass Details

Date: 03 June 2020
Orbit: 1527 x 1682 km, 47.3° (Epoch: 06 July)

Event Time Altitude Azimuth Distance (km) Brightness Sun altitude
Rises 13:37:59 0° 297° (WNW) 4,725 11.6 68.6°
Reaches altitude 10° 13:41:05 10° 293° (WNW) 3,756 11.2 68.3°
Maximum altitude 13:50:15 55° 220° (SW) 1,871 11.7 67.4°
Drops below altitude 10° 13:59:43 10° 146° (SE) 3,863 11.3 66.3°
Sets 14:02:58 0° 142° (SE) 4,866 11.7 65.9°
